VY1XY Weather Reports


Display with metric or nautical units.
time (UTC)temp
F
wind
direction
speed
MPH
gust
MPH
rain 1hr
in
rain 24hr
in
rain mn
in
humidity
%
barometer
mb
20260506225608 52 218 2.0 10.0 0.00 0.00 0.00 41 1012.3
20260506224708 52 266 2.0 7.0 0.00 0.00 0.00 43 1012.3
20260506222908 49 270 2.0 6.0 0.00 0.00 0.00 44 1012.3
20260506222008 52 178 2.0 8.0 0.00 0.00 0.00 43 1012.4
20260506221108 50 179 1.0 6.0 0.00 0.00 0.00 46 1012.5
20260506220208 49 195 1.0 6.0 0.00 0.00 0.00 46 1012.5
20260506215309 48 263 2.0 4.0 0.00 0.00 0.00 46 1012.5
20260506214408 48 273 2.0 6.0 0.00 0.00 0.00 44 1012.4
20260506212608 47 218 2.0 8.0 0.00 0.00 0.00 49 1012.4
20260506210808 47 171 1.0 5.0 0.00 0.00 0.00 49 1012.4
20260506205908 48 166 1.0 4.0 0.00 0.00 0.00 50 1012.4
20260506205008 48 140 1.0 8.0 0.00 0.00 0.00 49 1012.3
20260506204109 48 144 1.0 7.0 0.00 0.00 0.00 47 1012.4
20260506203208 49 201 2.0 7.0 0.00 0.00 0.00 48 1012.4
20260506202308 49 162 1.0 5.0 0.00 0.00 0.00 49 1012.3
20260506201408 48 155 2.0 10.0 0.00 0.00 0.00 49 1012.4
20260506200508 49 171 2.0 7.0 0.00 0.00 0.00 49 1012.2
20260506195608 48 246 1.0 4.0 0.00 0.00 0.00 47 1012.3
20260506194708 48 231 1.0 4.0 0.00 0.00 0.00 45 1012.2
20260506193808 48 201 2.0 6.0 0.00 0.00 0.00 44 1012.1
20260506192909 49 237 2.0 6.0 0.00 0.00 0.00 44 1012.0
20260506192008 48 246 1.0 6.0 0.00 0.00 0.00 45 1012.0
20260506191108 48 246 1.0 5.0 0.00 0.00 0.00 46 1012.1
20260506185309 47 274 1.0 4.0 0.00 0.00 0.00 47 1012.0
20260506184408 47 283 2.0 8.0 0.00 0.00 0.00 47 1012.0
20260506183509 46 289 1.0 4.0 0.00 0.00 0.00 49 1012.1
20260506182608 47 237 1.0 4.0 0.00 0.00 0.00 49 1012.1
20260506175908 47 181 2.0 7.0 0.00 0.00 0.00 49 1012.0
20260506175008 46 193 1.0 6.0 0.00 0.00 0.00 49 1012.0
20260506174109 47 190 1.0 7.0 0.00 0.00 0.00 49 1012.0
20260506173208 47 243 1.0 7.0 0.00 0.00 0.00 48 1012.0
20260506172308 47 172 1.0 6.0 0.00 0.00 0.00 52 1012.2
20260506170508 46 132 1.0 5.0 0.00 0.00 0.00 54 1012.2
20260506165608 45 198 1.0 7.0 0.00 0.00 0.00 56 1012.3
20260506164708 44 185 1.0 6.0 0.00 0.00 0.00 57 1012.3
20260506162908 43 143 2.0 9.0 0.00 0.00 0.00 57 1012.2
20260506161108 43 150 2.0 9.0 0.00 0.00 0.00 59 1012.2
20260506160208 43 161 2.0 7.0 0.00 0.00 0.00 59 1012.1
20260506155309 43 159 1.0 7.0 0.00 0.00 0.00 59 1012.0
20260506154408 43 150 1.0 7.0 0.00 0.00 0.00 61 1012.1
20260506152608 41 154 1.0 4.0 0.00 0.00 0.00 68 1011.9
20260506145908 38 174 0.0 2.0 0.00 0.00 0.00 74 1011.8
20260506145008 35 126 0.0 1.0 0.00 0.00 0.00 78 1011.8
20260506144109 34 153 0.0 1.0 0.00 0.00 0.00 80 1011.9
20260506143208 33 135 0.0 1.0 0.00 0.00 0.00 81 1011.8
20260506141407 32 140 0.0 1.0 0.00 0.00 0.00 82 1011.5
20260506140508 31 0 0.0 0.0 0.00 0.00 0.00 84 1011.5
20260506135608 31 0 0.0 0.0 0.00 0.00 0.00 85 1011.6
20260506134708 30 0 0.0 0.0 0.00 0.00 0.00 84 1011.5
20260506133809 30 0 0.0 0.0 0.00 0.00 0.00 84 1011.5
20260506132007 31 137 0.0 1.0 0.00 0.00 0.00 83 1011.2
20260506131108 30 0 0.0 0.0 0.00 0.00 0.00 84 1011.2
20260506124407 31 94 0.0 1.0 0.00 0.00 0.00 82 1011.0
20260506123507 32 0 0.0 0.0 0.00 0.00 0.00 81 1010.9
20260506121708 33 92 0.0 1.0 0.00 0.00 0.00 78 1010.9
20260506120808 34 109 0.0 2.0 0.00 0.00 0.00 77 1010.7
20260506115907 34 149 0.0 2.0 0.00 0.00 0.00 78 1010.6
20260506115009 34 123 0.0 5.0 0.00 0.00 0.00 79 1010.8
20260506114107 33 135 0.0 2.0 0.00 0.00 0.00 81 1010.6
20260506113208 33 100 0.0 2.0 0.00 0.00 0.00 80 1010.7
20260506112307 33 0 0.0 0.0 0.00 0.00 0.00 79 1010.5
20260506111407 34 151 1.0 4.0 0.00 0.00 0.00 79 1010.6
20260506110507 33 143 0.0 4.0 0.00 0.00 0.00 81 1010.3
20260506105607 32 139 0.0 4.0 0.00 0.00 0.00 83 1010.3
20260506103808 31 0 0.0 0.0 0.00 0.00 0.00 85 1010.3
20260506102908 31 0 0.0 0.0 0.00 0.00 0.00 83 1010.3
20260506102007 31 108 0.0 1.0 0.00 0.00 0.00 83 1010.3
20260506101107 31 107 0.0 1.0 0.00 0.00 0.00 83 1010.2
20260506100207 31 97 0.0 1.0 0.00 0.00 0.00 81 1010.2
20260506095308 31 90 0.0 1.0 0.00 0.00 0.00 80 1010.1
20260506094407 33 100 0.0 2.0 0.00 0.00 0.00 79 1010.2
20260506093507 33 148 0.0 2.0 0.00 0.00 0.00 79 1010.1
20260506092607 33 119 0.0 1.0 0.00 0.00 0.00 80 1010.0
20260506091708 33 130 0.0 1.0 0.00 0.00 0.00 80 1009.8
20260506090807 33 138 0.0 1.0 0.00 0.00 0.00 80 1009.8
20260506085907 33 144 0.0 1.0 0.00 0.00 0.00 78 1009.9
20260506083207 35 145 0.0 1.0 0.00 0.00 0.00 76 1009.6
20260506082307 35 132 0.0 3.0 0.00 0.00 0.00 76 1009.7
20260506081407 35 147 0.0 1.0 0.00 0.00 0.00 75 1009.7
20260506080507 35 188 0.0 2.0 0.00 0.00 0.00 75 1009.6
20260506072007 37 145 0.0 4.0 0.00 0.00 0.00 73 1009.3
20260506071107 37 153 1.0 4.0 0.00 0.00 0.00 72 1009.2
20260506070207 37 157 0.0 4.0 0.00 0.00 0.00 72 1009.2
20260506061708 38 188 1.0 5.0 0.00 0.00 0.00 71 1008.8
20260506060807 38 201 1.0 4.0 0.00 0.00 0.00 71 1009.0
20260506050507 40 155 2.0 13.0 0.00 0.00 0.00 64 1008.9
20260506044707 41 199 2.0 11.0 0.00 0.00 0.00 63 1008.8
20260506043807 42 147 2.0 7.0 0.00 0.00 0.00 62 1008.6
20260506042908 42 149 2.0 6.0 0.00 0.00 0.00 61 1008.8
20260506042007 43 144 2.0 7.0 0.00 0.00 0.00 60 1008.8
20260506041107 44 133 2.0 8.0 0.00 0.00 0.00 58 1008.7
20260506040207 45 152 2.0 8.0 0.00 0.00 0.00 57 1008.4
20260506035308 45 157 2.0 12.0 0.00 0.00 0.00 55 1008.2
20260506034407 46 151 2.0 11.0 0.00 0.00 0.00 55 1007.9
20260506032607 46 146 2.0 11.0 0.00 0.00 0.00 53 1008.1
20260506031707 47 144 4.0 10.0 0.00 0.00 0.00 52 1008.0
20260506030807 48 147 3.0 10.0 0.00 0.00 0.00 50 1007.9
20260506025907 49 160 3.0 12.0 0.00 0.00 0.00 49 1007.8
20260506024108 51 142 2.0 7.0 0.00 0.00 0.00 47 1007.9
20260506023207 51 139 2.0 10.0 0.00 0.00 0.00 46 1007.8
20260506022307 51 171 2.0 12.0 0.00 0.00 0.00 45 1007.6
20260506020507 53 148 1.0 6.0 0.00 0.00 0.00 43 1007.7
20260506015607 52 146 2.0 9.0 0.00 0.00 0.00 44 1007.4
20260506014707 51 137 3.0 11.0 0.00 0.00 0.00 44 1007.2
20260506012907 52 150 3.0 13.0 0.00 0.00 0.00 43 1007.2
20260506012007 52 171 3.0 13.0 0.00 0.00 0.00 44 1006.9
20260506011107 52 155 3.0 11.0 0.00 0.00 0.00 42 1007.2
20260506010208 53 174 3.0 12.0 0.00 0.00 0.00 42 1007.2
20260506005307 54 164 3.0 12.0 0.00 0.00 0.00 40 1007.2
20260506004407 54 154 4.0 13.0 0.00 0.00 0.00 40 1007.2
20260506003507 55 156 3.0 11.0 0.00 0.00 0.00 38 1006.9
20260506002608 55 154 3.0 13.0 0.00 0.00 0.00 39 1007.0
20260506000806 54 138 3.0 10.0 0.00 0.00 0.00 39 1006.9
20260505235007 53 152 4.0 9.0 0.00 0.00 0.00 41 1006.9
20260505234107 53 151 3.0 13.0 0.00 0.00 0.00 40 1007.0
20260505233207 54 165 3.0 9.0 0.00 0.00 0.00 40 1006.8
20260505232307 53 153 3.0 9.0 0.00 0.00 0.00 41 1007.0
20260505231406 54 154 3.0 17.0 0.00 0.00 0.00 40 1007.0
20260505230506 55 167 3.0 17.0 0.00 0.00 0.00 41 1007.1